Погода в Сатине

Россия / Тамбовская область     52°06′45″N   42°36′40″E
темп.,
°C
ветер,
м/с
пор.,
м/с
влажн.,
%
обл.,
%
осадки,
мм/ч
давл.,
гПа
погр.,
м
18 апреля, вс
вс1800:00+7з11860 0.0 102010
03:00+5юз22890 0.0 102014
06:00+5ю11892 0.0 101917
09:00+10ююз33695 0.0 1019567
12:00+13ююз345139 0.0 10191608
15:00+15юз324344 0.0 10181859
18:00+13зюз235026 0.0 1018115
21:00+10сз356187 0.0 1018128
19 апреля, пн
пн1900:00+10ссв227260 0.0 101835
03:00+7всв3592100 0.3 1017102
06:00+8в1494100 1.6 1017196
09:00+10ссв338024 3.8 1017512
12:00+14юв12535 0.2 10161342
15:00+15вюв234771 0.8 10151692
18:00+11в7978100 2.6 1017515
21:00+8в6118641 3.6 1018442
20 апреля, вт
вт2000:00+8в5108978 1.1 1018382
03:00+7в6109183 1.1 1019450
06:00+6в6139099 0.0 1018523
09:00+7в71486100 0.2 1018684
12:00+9вюв91377100 0.0 1017862
15:00+9вюв111875100 0.0 1015943
18:00+7вюв122285100 2.8 1011957
21:00+8вюв142489100 5.9 10091078
21 апреля, ср
ср2100:00+8юв132482100 3.8 10091050
03:00+8юв122287100 3.9 1008901
06:00+8юв122092100 1.1 10081209
09:00+9ююв81588100 1.8 10101078
12:00+9ю81386100 0.3 1011909
15:00+8зюз4986100 1.6 1014601
18:00+10юз5972100 0.1 1016443
21:00+8зюз248424 0.2 101999
22 апреля, чт
чт2200:00+6ю3590100 0.0 102086
03:00+5зюз239316 0.0 102140
06:00+5зюз228528 0.0 102337
09:00+9зюз236231 0.0 1024849
12:00+10з3355100 0.0 10241154
15:00+11ююз225088 0.0 10241482
18:00+11ю225852 0.0 102570
21:00+8ю226528 0.0 102512